Weather reports worldwide

Advertisment
Plymouth, United Kingdom (3827): temperature & dewpoint: 14.11.2019 11:00:00 - 20.11.2019 11:00:00 (GMT)Plymouth, United Kingdom (3827): wind speed & gusts: 14.11.2019 11:00:00 - 20.11.2019 11:00:00 (GMT)Plymouth, United Kingdom (3827): wind direction: 14.11.2019 11:00:00 - 20.11.2019 11:00:00 (GMT)Plymouth, United Kingdom (3827): reduced air pressure: 14.11.2019 11:00:00 - 20.11.2019 11:00:00 (GMT)Plymouth, United Kingdom (3827): visibility: 14.11.2019 11:00:00 - 20.11.2019 11:00:00 (GMT)Plymouth, United Kingdom (3827): precipitation: 14.11.2019 11:00:00 - 20.11.2019 11:00:00 (GMT)
Date & Time tt [°C] td [°C] ff [km/h] ff [kn] fx [km/h] fx [kn] dd ppp [hPa] vv [km] rr [mm]
20.11.2019 11:00:00 8,9 4,8 28 15 50 27 SE 1006,9 26 -
20.11.2019 10:00:00 9,0 4,7 28 15 50 27 SE 1007,3 23 0,0
20.11.2019 09:00:00 9,1 4,4 26 14 48 26 SE 1007,4 27 0,0
20.11.2019 08:00:00 8,9 4,6 28 15 52 28 SE 1007,4 29 0,4
20.11.2019 07:00:00 8,8 5,2 28 15 65 35 SSE 1007,9 19 0,2
20.11.2019 06:00:00 9,1 5,7 34 18 57 31 SSE 1007,9 17 0,2
20.11.2019 05:00:00 9,2 6,6 29 16 57 31 S 1008,3 7 0,2
20.11.2019 04:00:00 10,3 7,1 35 19 54 29 SSE 1008,5 22 0,0
20.11.2019 03:00:00 10,3 7,4 29 16 59 32 SSE 1008,9 22 0,0
20.11.2019 02:00:00 10,4 8,0 31 17 54 29 SSE 1009,0 19 0,0
20.11.2019 01:00:00 10,5 8,4 28 15 54 29 SSE 1009,5 18 0,0
20.11.2019 00:00:00 10,1 7,5 29 16 46 25 SSE 1010,0 19 0,0
19.11.2019 23:00:00 10,2 7,5 34 18 48 26 SSE 1010,6 21 0,0
19.11.2019 22:00:00 10,2 7,7 28 15 52 28 SSE 1010,9 19 0,0
19.11.2019 21:00:00 10,7 8,3 26 14 - - SSE 1011,0 20 0,0
19.11.2019 20:00:00 10,5 7,9 26 14 46 25 SSE 1011,3 22 0,0
19.11.2019 19:00:00 10,6 7,9 26 14 - - SSE 1011,5 23 0,0
19.11.2019 18:00:00 10,6 7,8 24 13 - - SSE 1011,5 25 0,0
19.11.2019 17:00:00 10,4 7,4 22 12 - - SSE 1011,7 27 0,0
19.11.2019 16:00:00 10,7 7,2 22 12 - - S 1012,0 28 0,0
19.11.2019 15:00:00 10,8 7,2 21 11 - - S 1012,1 27 0,0
19.11.2019 14:00:00 10,9 6,6 31 17 46 25 S 1012,5 30 0,0
19.11.2019 13:00:00 11,1 7,3 29 16 - - S 1012,9 27 0,0
19.11.2019 12:00:00 10,8 6,9 28 15 48 26 S 1013,4 26 0,0
19.11.2019 11:00:00 10,8 6,8 35 19 46 25 S 1014,0 28 0,0
19.11.2019 10:00:00 10,4 6,8 29 16 46 25 S 1014,4 29 0,0
19.11.2019 09:00:00 10,1 6,5 31 17 - - S 1014,4 30 0,0
19.11.2019 08:00:00 10,0 7,2 29 16 - - S 1014,4 28 0,0
19.11.2019 07:00:00 8,9 5,8 18 10 - - SSE 1014,7 30 0,0
19.11.2019 06:00:00 8,8 5,4 21 11 - - S 1014,8 30 0,0
19.11.2019 05:00:00 9,0 5,5 22 12 - - S 1014,8 35 0,0
19.11.2019 04:00:00 9,2 4,6 21 11 - - S 1015,4 40 0,0
19.11.2019 03:00:00 6,7 4,3 11 6 - - SSE 1016,0 30 0,0
19.11.2019 02:00:00 4,4 3,1 8 4 - - ESE 1016,8 21 0,0
19.11.2019 01:00:00 3,3 2,0 9 5 - - ENE 1017,3 20 0,0
19.11.2019 00:00:00 2,8 1,6 11 6 - - E 1017,7 17 0,0
18.11.2019 23:00:00 3,2 2,1 11 6 - - E 1018,0 19 0,0
18.11.2019 22:00:00 2,7 1,6 9 5 - - E 1018,3 14 0,0
18.11.2019 21:00:00 3,0 1,7 11 6 - - ENE 1018,3 13 0,0
18.11.2019 20:00:00 4,0 2,8 11 6 - - E 1018,4 11 0,0
18.11.2019 19:00:00 5,3 3,8 8 4 - - E 1018,5 20 0,0
18.11.2019 18:00:00 5,3 3,2 4 2 - - NW 1018,5 29 0,0
18.11.2019 17:00:00 5,9 2,8 8 4 - - W 1018,0 35 0,0
18.11.2019 16:00:00 8,2 2,8 5 3 - - WNW 1017,9 35 0,0
18.11.2019 15:00:00 9,6 3,7 8 4 - - WSW 1018,0 35 0,0
18.11.2019 14:00:00 10,2 4,2 9 5 - - W 1018,2 35 0,0
18.11.2019 13:00:00 10,3 4,2 9 5 - - WSW 1018,3 35 0,0
18.11.2019 12:00:00 9,3 4,6 8 4 - - W 1018,6 35 0,0
18.11.2019 11:00:00 8,3 4,4 5 3 - - W 1018,8 30 0,0
18.11.2019 10:00:00 7,3 4,4 2 1 - - W 1018,8 25 0,0
18.11.2019 09:00:00 5,3 3,6 8 4 - - NNE 1018,8 21 0,0
18.11.2019 08:00:00 4,5 2,7 13 7 - - N 1018,9 23 0,0
18.11.2019 07:00:00 4,6 3,0 9 5 - - NNW 1018,7 24 0,0
18.11.2019 06:00:00 5,2 2,9 2 1 - - WNW 1017,5 25 0,0
18.11.2019 05:00:00 6,5 3,9 11 6 - - NNE 1017,1 30 0,0
18.11.2019 04:00:00 6,9 4,7 15 8 - - NNE 1016,7 30 0,0
18.11.2019 03:00:00 7,3 6,0 13 7 - - N 1016,6 23 0,0
18.11.2019 02:00:00 7,2 6,0 13 7 - - N 1016,4 24 0,0
18.11.2019 01:00:00 6,5 5,4 13 7 - - N 1016,1 19 0,0
18.11.2019 00:00:00 6,8 6,0 9 5 - - N 1015,7 20 0,0
17.11.2019 23:00:00 6,6 5,6 11 6 - - N 1015,4 18 0,0
17.11.2019 22:00:00 6,8 5,8 11 6 - - N 1015,2 20 0,0
17.11.2019 21:00:00 6,1 4,8 5 3 - - NNE 1015,2 16 0,0
17.11.2019 20:00:00 7,0 4,9 8 4 - - N 1014,5 27 0,0
17.11.2019 19:00:00 6,8 4,9 4 2 - - NNE 1014,1 25 0,0
17.11.2019 18:00:00 7,2 5,9 9 5 - - N 1013,9 21 0,0
17.11.2019 17:00:00 8,1 6,2 8 4 - - ENE 1013,4 29 0,0
17.11.2019 16:00:00 9,2 5,7 9 5 - - N 1012,7 30 0,0
17.11.2019 15:00:00 9,9 5,5 16 9 - - N 1012,1 35 0,0
17.11.2019 14:00:00 10,2 5,8 15 8 - - N 1011,6 35 0,0
17.11.2019 13:00:00 10,0 6,1 13 7 - - NNW 1011,6 27 0,0
17.11.2019 12:00:00 9,7 6,6 8 4 - - NNW 1011,7 26 0,0
17.11.2019 11:00:00 8,4 6,0 5 3 - - NNE 1011,8 27 0,0
17.11.2019 10:00:00 7,1 5,9 2 1 - - ENE 1011,3 19 0,0
17.11.2019 09:00:00 5,8 4,6 4 2 - - NNE 1010,9 14 0,0
17.11.2019 08:00:00 5,4 4,2 4 2 - - ENE 1010,2 15 0,0
17.11.2019 07:00:00 5,4 4,3 8 4 - - ENE 1009,7 15 0,0
17.11.2019 06:00:00 5,7 4,2 0 0 - - N 1009,4 15 0,0
17.11.2019 05:00:00 5,6 3,8 4 2 - - N 1009,2 16 0,0
17.11.2019 04:00:00 5,4 3,6 5 3 - - ENE 1009,1 15 0,0
17.11.2019 03:00:00 5,1 3,2 9 5 - - E 1009,0 18 0,0
17.11.2019 02:00:00 4,9 3,4 8 4 - - NE 1009,2 14 0,0
17.11.2019 01:00:00 4,7 3,1 8 4 - - ENE 1009,2 9 0,0
17.11.2019 00:00:00 4,8 2,5 9 5 - - E 1009,2 14 0,0
16.11.2019 23:00:00 4,6 2,6 8 4 - - ENE 1009,1 11 0,0
16.11.2019 22:00:00 4,7 2,6 8 4 - - E 1009,1 10 0,0
16.11.2019 21:00:00 4,6 2,7 8 4 - - E 1009,1 10 0,0
16.11.2019 20:00:00 4,8 2,9 9 5 - - E 1009,0 8 0,0
16.11.2019 19:00:00 5,2 2,5 8 4 - - ENE 1009,1 16 0,0
16.11.2019 18:00:00 5,9 2,3 8 4 - - ENE 1008,6 12 0,0
16.11.2019 17:00:00 6,3 1,8 5 3 - - E 1008,2 20 0,0
16.11.2019 16:00:00 8,2 2,0 9 5 - - NE 1008,1 25 0,0
16.11.2019 15:00:00 9,0 2,1 8 4 - - NE 1007,7 26 0,0
16.11.2019 14:00:00 10,1 2,1 11 6 - - NNE 1007,1 27 0,0
16.11.2019 13:00:00 10,2 2,3 13 7 - - N 1007,4 22 0,0
16.11.2019 12:00:00 10,2 2,5 11 6 - - NNE 1007,7 25 0,0
16.11.2019 11:00:00 9,6 3,9 11 6 - - N 1007,6 23 0,0
16.11.2019 10:00:00 7,8 4,2 16 9 - - N 1007,2 24 0,0
16.11.2019 09:00:00 6,3 4,3 9 5 - - N 1007,1 28 0,0
16.11.2019 08:00:00 4,8 3,0 2 1 - - N 1006,7 28 0,0
16.11.2019 07:00:00 6,2 3,9 16 9 - - NNE 1006,1 29 0,0
16.11.2019 06:00:00 6,4 3,8 24 13 - - N 1005,4 30 0,0
16.11.2019 05:00:00 6,6 3,7 24 13 - - N 1004,9 29 0,0
16.11.2019 04:00:00 6,9 3,6 24 13 - - N 1004,8 29 0,0
16.11.2019 03:00:00 7,1 3,4 26 14 - - N 1004,8 30 0,0
16.11.2019 02:00:00 7,3 3,4 22 12 48 26 NNW 1005,1 30 0,0
16.11.2019 01:00:00 7,1 3,3 28 15 48 26 NNW 1005,0 30 0,0
16.11.2019 00:00:00 7,2 3,4 26 14 - - NNW 1005,4 30 0,0
15.11.2019 23:00:00 7,3 3,7 21 11 - - NNW 1005,5 30 0,0
15.11.2019 22:00:00 7,4 3,8 26 14 - - NNW 1006,3 30 0,0
15.11.2019 21:00:00 7,2 4,0 24 13 46 25 N 1006,5 30 0,0
15.11.2019 20:00:00 7,3 4,2 31 17 50 27 N 1006,9 30 0,0
15.11.2019 19:00:00 7,4 4,4 21 11 - - NNW 1007,0 27 0,0
15.11.2019 18:00:00 7,4 4,4 21 11 - - N 1006,9 28 0,0
15.11.2019 17:00:00 7,5 4,6 13 7 - - N 1006,7 26 0,0
15.11.2019 16:00:00 7,9 4,5 21 11 - - N 1006,8 26 0,0
15.11.2019 15:00:00 8,3 3,9 26 14 54 29 N 1006,3 30 0,0
15.11.2019 14:00:00 8,5 3,6 24 13 - - N 1006,4 30 0,0
15.11.2019 13:00:00 8,1 3,2 22 12 - - N 1007,0 30 0,0
15.11.2019 12:00:00 8,4 3,4 22 12 54 29 N 1007,4 35 0,0
15.11.2019 11:00:00 7,4 4,0 21 11 - - N 1007,6 30 0,0
15.11.2019 10:00:00 6,3 3,3 16 9 - - N 1007,4 30 0,0
15.11.2019 09:00:00 5,3 2,8 21 11 - - N 1007,2 30 0,0
15.11.2019 08:00:00 4,5 2,5 21 11 - - N 1006,9 30 0,0
15.11.2019 07:00:00 5,0 2,7 16 9 - - N 1006,5 26 0,0
15.11.2019 06:00:00 5,2 2,5 22 12 - - N 1006,1 35 0,0
15.11.2019 05:00:00 4,9 2,8 21 11 - - NNE 1005,7 35 0,0
15.11.2019 04:00:00 5,0 2,8 28 15 50 27 NNE 1005,3 35 0,0
15.11.2019 03:00:00 4,3 2,5 16 9 - - NNE 1005,1 35 0,0
15.11.2019 02:00:00 4,9 3,0 18 10 - - NNE 1005,0 30 0,0
15.11.2019 01:00:00 4,7 3,3 16 9 - - N 1004,6 29 0,0
15.11.2019 00:00:00 3,8 2,1 13 7 - - N 1004,2 30 0,0
14.11.2019 23:00:00 4,2 2,4 22 12 - - N 1003,6 35 0,0
14.11.2019 22:00:00 4,3 2,3 15 8 - - N 1003,2 35 0,0
14.11.2019 21:00:00 4,6 2,5 26 14 46 25 NNE 1002,2 45 0,0
14.11.2019 20:00:00 4,7 2,4 24 13 - - N 1001,6 40 0,0
14.11.2019 19:00:00 4,7 2,5 18 10 46 25 NNE 1001,0 45 0,0
14.11.2019 18:00:00 5,0 3,0 28 15 - - NNE 999,9 26 0,0
14.11.2019 17:00:00 4,4 2,3 21 11 - - NE 998,8 40 0,0
14.11.2019 16:00:00 5,0 2,7 24 13 46 25 NNE 997,5 45 0,0
14.11.2019 15:00:00 5,2 3,5 28 15 48 26 N 996,1 40 0,0
14.11.2019 14:00:00 5,6 4,1 29 16 - - N 995,3 25 0,2
14.11.2019 13:00:00 5,5 4,4 21 11 - - N 994,9 16 0,0
14.11.2019 12:00:00 4,8 4,2 15 8 - - N 994,8 24 0,0
14.11.2019 11:00:00 4,1 3,4 16 9 - - N 994,8 27 0,2

tt = temperature
td = dewpoint
ff = wind speed
fx = gusts
dd = wind direction
ppp = reduced air pressure
vv = visibility
rr = precipitation

Next stations